Vertical_Velocity
3 0 1 0 1 1 0 1 0 0 1 1 2 -1 1 -0 -1 0 -1 1 0 0 0 -0 0 1 -1 -1 -0 -1 1 -1 -1 0 -1 -0 1 0 -0 -1 -1 2 -1
3 1 1 1 0 0 2 1 0 -0 -1 -3 1 -1 2 -1 0 0 -0 -1 1 1 0 0 -0 -0 0 -0 -1 -0 -1 0 -0 -1 0 -0 0 -0 -0 1 -1 3 0
1 2 1 2 2 1 1 3 2 0 2 2 -1 -2 2 -0 -1 0 1 -0 -1 0 -0 1 1 0 0 -0 -0 -1 -0 -1 1 0 -2 0 0 1 1 -0 1 1 -0
-2 2 2 1 2 1 0 2 2 3 1 2 -1 -1 -2 -0 -0 -1 1 1 -0 -0 -0 0 1 1 1 -0 0 -0 -1 -1 -1 2 1 -1 0 1 1 -0 -1 -0 0
6 5 2 1 -1 0 1 1 -0 -4 2 2 0 -1 -1 -1 -1 -1 -1 0 -1 -1 -1 -0 -0 -1 -0 0 -1 1 1 -0 -1 -1 2 1 -2 1 0 1 1 -0 0
3 3 3 -0 2 -1 1 1 -0 -0 -0 -1 -1 -2 -2 -2 -1 -1 -1 -1 0 1 -1 -1 -1 -1 -1 -1 -0 -1 0 0 0 -2 1 -0 1 1 1 -1 -1 1 -0
4 -1 -0 1 -1 1 -1 1 1 1 -1 -1 -1 -2 0 0 1 -1 0 -1 -1 1 0 -1 -1 0 -0 1 -0 -0 -0 1 1 1 1 -1 -0 -0 1 1 -4 -1 0
3 5 -0 -1 -0 -0 1 0 -1 0 1 -1 -2 1 2 0 1 -0 0 -1 -1 -1 1 0 -1 -0 0 0 -0 1 -0 1 1 1 2 1 -1 1 0 1 0 2 1
3 2 1 1 -1 -1 -1 1 1 0 -1 1 1 0 3 -1 -1 0 2 2 1 -0 0 0 1 -0 -1 1 1 -0 -0 0 0 2 1 1 -1 0 0 0 -0 1 1
2 3 1 4 1 -1 -1 -0 -0 0 1 2 0 -2 -2 -1 2 2 -2 -2 -2 0 0 0 -1 -1 -0 -1 -1 -1 -2 -0 3 -2 2 2 1 -0 -1 1 1 0 -1
0 1 1 -1 1 4 8 3 -2 -1 2 5 2 2 1 6 32 1 2 3 -2 -0 1 1 0 -1 -1 -1 -0 -1 -0 -1 -2 1 -0 0 2 1 0 -0 1 2 1
1 -0 -1 -1 -1 2 3 -4 0 -7 8 11 7 -8 8 13 17 12 31 -0 -0 1 0 0 -0 1 -1 -0 0 -1 -1 0 -1 -1 1 2 1 1 1 1 1 0 2
1 1 -1 -1 -1 -0 2 0 -2 0 -0 1 0 -0 -1 -4 -1 -2 -8 0 -0 1 2 1 -0 0 1 1 -1 0 -0 0 -1 -1 -1 1 -1 0 -0 1 0 1 2
-0 -1 1 -1 -1 0 -0 2 1 -1 0 -1 -2 -1 -2 -3 -1 -5 1 -1 -1 -0 1 1 1 0 -0 -1 0 -2 -1 1 -0 2 2 -2 -1 0 -0 1 0 0 1
1 -1 -0 -2 -2 -1 -1 1 1 1 1 0 -1 -2 -3 -3 -3 -3 -4 -1 -2 -1 -0 -0 2 0 0 1 -3 -4 -2 -3 -6 -3 -2 -0 1 1 1 -0 -1 0 -3
-1 -0 -1 -2 -2 -2 -1 1 -0 2 2 2 1 1 1 -1 -0 1 1 -1 -0 1 -0 1 1 1 1 -1 -0 4 -3 2 1 2 -4 2 -11 -7 -3 -4 -1 -1 2
-1 -2 -0 -0 -1 -1 -0 -1 -2 -1 1 2 1 2 1 1 -1 -1 2 -4 4 1 0 2 1 -0 2 -2 -0 1 1 -1 -0 1 1 2 2 -1 -1 0 1 -1 -4
-0 -3 -1 -0 -2 -1 -1 0 -0 -1 -1 0 2 2 2 0 2 0 2 3 0 1 1 -1 -1 0 0 1 0 0 1 1 -1 2 3 -0 -1 1 2 -0 0 1 1
-1 -2 -1 1 1 -0 -0 1 -0 0 1 -0 -0 0 0 1 1 1 0 1 2 1 2 -3 0 1 -1 -1 -2 0 -1 -2 -1 2 1 0 2 2 -1 -1 1 1 1
0 0 -1 -1 -0 0 1 0 -0 1 1 0 -1 -2 -2 -1 -1 0 -1 -1 -0 -2 -3 -2 -1 -2 -1 -0 -0 1 -2 1 2 -1 -2 3 0 0 0 -2 0 1 -0
1 2 1 -0 1 0 1 -0 -1 0 1 0 0 1 -2 -2 -2 -0 -1 -1 -2 -1 -1 -0 1 -1 -3 -4 1 -5 -1 -0 2 -8 -1 3 -1 -1 1 0 -1 -0 -0
5 -1 -0 3 1 1 -0 1 1 2 -0 1 0 0 1 1 -0 -2 -0 -1 0 0 0 0 -1 2 -1 -5 1 -3 5 -3 2 -1 1 -7 2 -0 2 0 -1 -1 -1
-1 3 -0 -3 -0 1 -1 -1 -1 1 1 2 3 1 3 3 2 2 1 0 -1 -0 -1 -2 -1 0 2 -1 -4 -3 -3 0 -1 -1 5 -2 -1 -1 1 1 -1 2 -0
-2 -1 -1 2 -2 -1 3 2 0 -1 1 0 -2 2 1 -1 -0 1 -1 -0 -0 1 -1 -1 -3 0 -0 2 -2 -5 -0 0 1 3 2 -2 -3 -3 -1 -1 1 -1 0
3 1 0 0 1 1 -2 -0 0 -0 -3 -1 -1 -2 -1 -1 -0 -1 -2 -1 -1 -1 -0 -0 -2 -1 -2 2 -3 -3 -1 -3 -3 -3 8 3 -1 1 -3 -4 -1 -1 -2
3 3 1 -1 -1 -1 2 -1 0 1 1 0 1 -1 -2 -3 -1 -4 -3 -0 -0 -2 -2 -2 -0 -1 -4 -3 1 -0 -2 -3 1 -4 -3 7 0 6 -2 -1 0 2 2
Height
5832 5833 5834 5834 5834 5836 5837 5838 5839 5839 5839 5841 5841 5842 5843 5844 5844 5844 5844 5844 5844 5845 5845 5845 5846 5846 5846 5847 5848 5849 5849 5850 5850 5850 5851 5851 5853 5854 5854 5855 5856 5858 5858
5828 5829 5830 5831 5831 5832 5834 5835 5836 5837 5838 5839 5839 5840 5841 5842 5842 5843 5843 5843 5842 5843 5843 5844 5844 5845 5845 5845 5846 5847 5848 5849 5849 5849 5850 5851 5852 5853 5854 5854 5854 5856 5857
5826 5825 5827 5828 5828 5829 5830 5832 5833 5833 5835 5836 5836 5837 5838 5839 5840 5841 5841 5841 5841 5841 5842 5843 5843 5843 5844 5844 5844 5845 5846 5847 5848 5849 5849 5850 5850 5852 5853 5854 5854 5855 5856
5820 5821 5822 5824 5824 5826 5827 5827 5829 5830 5831 5832 5832 5833 5835 5836 5837 5838 5838 5838 5839 5839 5840 5840 5841 5842 5842 5843 5843 5844 5844 5845 5846 5847 5848 5848 5849 5850 5851 5852 5853 5853 5854
5812 5815 5815 5818 5821 5823 5824 5824 5824 5826 5826 5827 5828 5829 5831 5832 5833 5834 5835 5836 5836 5837 5838 5838 5839 5839 5840 5840 5841 5842 5843 5843 5844 5845 5846 5846 5847 5848 5849 5849 5850 5852 5852
5803 5809 5812 5814 5816 5818 5820 5820 5820 5820 5821 5822 5823 5825 5826 5828 5829 5831 5831 5832 5833 5833 5835 5836 5836 5837 5838 5838 5839 5840 5841 5841 5842 5843 5844 5844 5845 5846 5846 5847 5848 5849 5851
5800 5804 5806 5809 5811 5813 5815 5816 5815 5815 5816 5817 5818 5820 5821 5822 5824 5825 5826 5828 5829 5829 5831 5832 5833 5834 5834 5835 5836 5837 5838 5838 5839 5840 5841 5842 5842 5843 5844 5844 5846 5848 5848
5794 5797 5800 5803 5805 5808 5809 5810 5810 5810 5810 5811 5813 5814 5814 5816 5818 5819 5821 5823 5824 5825 5826 5828 5829 5830 5831 5832 5833 5834 5834 5835 5836 5837 5838 5839 5840 5841 5841 5841 5843 5844 5846
5789 5792 5794 5797 5800 5802 5803 5804 5804 5804 5805 5806 5807 5809 5810 5811 5812 5814 5815 5816 5818 5820 5821 5823 5825 5826 5827 5828 5829 5830 5831 5832 5833 5833 5835 5835 5836 5837 5838 5839 5840 5842 5843
5785 5787 5789 5791 5795 5796 5797 5798 5799 5799 5801 5802 5802 5804 5805 5805 5807 5808 5810 5812 5814 5815 5816 5818 5820 5822 5823 5824 5825 5826 5827 5828 5829 5831 5830 5831 5833 5833 5834 5835 5836 5838 5839
5781 5783 5785 5788 5790 5791 5792 5793 5793 5794 5796 5796 5797 5799 5799 5799 5802 5801 5801 5805 5808 5810 5811 5813 5815 5816 5818 5819 5820 5821 5822 5824 5824 5826 5827 5828 5829 5829 5830 5831 5832 5833 5835
5777 5778 5780 5783 5785 5787 5787 5787 5788 5789 5791 5791 5789 5792 5794 5793 5792 5794 5795 5798 5801 5805 5807 5808 5809 5811 5812 5814 5815 5816 5817 5818 5820 5821 5822 5823 5824 5825 5825 5826 5828 5829 5830
5772 5773 5775 5778 5780 5781 5782 5783 5785 5786 5787 5788 5790 5790 5791 5791 5790 5792 5795 5795 5797 5799 5801 5803 5805 5806 5807 5809 5810 5810 5812 5813 5814 5816 5817 5818 5819 5820 5821 5822 5823 5823 5825
5767 5769 5770 5772 5774 5776 5778 5779 5780 5781 5782 5782 5784 5786 5786 5788 5788 5788 5789 5790 5793 5795 5797 5798 5799 5800 5802 5803 5803 5804 5806 5807 5808 5810 5811 5812 5813 5814 5815 5816 5817 5818 5819
5763 5764 5766 5767 5769 5771 5773 5775 5777 5778 5777 5778 5779 5781 5783 5784 5786 5787 5787 5787 5789 5791 5792 5793 5793 5794 5795 5797 5797 5799 5800 5799 5800 5803 5805 5805 5805 5807 5808 5810 5811 5812 5812
5759 5760 5762 5763 5765 5767 5768 5770 5772 5774 5775 5775 5776 5777 5778 5780 5781 5781 5783 5783 5785 5785 5787 5788 5788 5789 5790 5791 5792 5793 5795 5795 5796 5796 5796 5798 5798 5800 5801 5802 5804 5804 5805
5755 5756 5758 5760 5762 5763 5764 5766 5767 5769 5771 5772 5772 5773 5773 5774 5776 5777 5778 5779 5779 5781 5782 5783 5784 5784 5785 5786 5787 5787 5789 5790 5791 5791 5792 5792 5792 5793 5795 5795 5796 5797 5798
5751 5753 5754 5756 5758 5759 5761 5762 5763 5764 5766 5767 5768 5769 5769 5770 5771 5772 5772 5774 5775 5776 5777 5777 5778 5778 5779 5781 5781 5781 5782 5783 5784 5784 5785 5786 5786 5787 5788 5788 5788 5789 5790
5746 5749 5751 5753 5754 5756 5757 5759 5760 5761 5762 5763 5764 5764 5765 5765 5766 5767 5768 5768 5768 5769 5770 5770 5771 5772 5772 5773 5773 5774 5774 5775 5775 5775 5776 5777 5778 5779 5780 5780 5780 5781 5781
5744 5744 5747 5750 5751 5752 5754 5755 5756 5757 5758 5758 5759 5760 5761 5761 5761 5761 5761 5761 5762 5763 5763 5763 5763 5764 5764 5764 5765 5766 5765 5766 5766 5766 5767 5768 5769 5770 5771 5771 5771 5772 5771
5741 5743 5742 5744 5746 5748 5749 5750 5751 5752 5753 5753 5754 5754 5755 5755 5755 5755 5755 5755 5756 5755 5755 5755 5756 5755 5754 5755 5756 5756 5757 5757 5758 5756 5758 5759 5759 5759 5760 5761 5761 5762 5762
5737 5737 5739 5739 5740 5742 5744 5745 5746 5747 5747 5748 5748 5748 5749 5749 5749 5749 5749 5748 5748 5748 5747 5747 5747 5747 5746 5745 5746 5746 5747 5747 5747 5747 5746 5747 5748 5749 5749 5749 5749 5750 5751
5731 5733 5733 5735 5736 5736 5737 5738 5739 5741 5742 5742 5742 5742 5742 5742 5742 5742 5741 5741 5740 5740 5739 5738 5738 5737 5737 5736 5735 5735 5736 5736 5735 5736 5737 5736 5736 5737 5737 5737 5737 5738 5739
5725 5726 5726 5728 5729 5730 5730 5731 5732 5733 5734 5735 5735 5734 5734 5734 5734 5734 5733 5732 5732 5731 5730 5729 5728 5727 5727 5726 5725 5724 5724 5724 5724 5725 5725 5725 5724 5723 5724 5725 5726 5726 5727
5717 5718 5719 5719 5720 5721 5723 5724 5724 5724 5725 5726 5727 5726 5726 5725 5725 5725 5724 5723 5722 5722 5721 5719 5718 5717 5716 5716 5715 5713 5712 5712 5712 5712 5714 5713 5713 5713 5712 5712 5712 5712 5713
5708 5709 5710 5710 5711 5712 5714 5715 5716 5716 5716 5716 5717 5717 5716 5716 5715 5715 5714 5713 5712 5711 5711 5709 5708 5707 5705 5704 5703 5702 5701 5701 5700 5699 5699 5699 5699 5699 5699 5699 5698 5697 5698